[[{"header":{"parameterUnit":"m.s-1","parameterCategory":1,"la1":30.2991,"la2":30.254,"lo1":-89.0895,"lo2":-89.0444,"dy":0.0017,"dx":0.0017,"nx":28,"ny":28,"refTime":"2024-10-11T03:00:00:Z","depth":0,"parameterNumber":2,"parameterNumberName":"U-component_of_WINDS"},"data":[0,0,0,0,0,0,0,0,0,0,0,0,0,0,0,0,0,0,0,0,0,0,0,0,0,0,0,0,0,0,0,0,0,0,0,0,0,0,0,0,0,0,0,0,0,0,0,0,0,0,0,0,0,0,0,0,0,0,-1.7627,-1.7627,0,-1.7688,-1.7688,-1.7689,-1.7608,-1.7606,-1.7603,-1.76,-1.7665,-1.7669,-1.7674,0,0,0,0,0,0,0,0,0,0,0,0,0,-1.7442,-1.7446,-1.7626,-1.7627,-1.7628,-1.7687,-1.7688,-1.7689,-1.7609,-1.7605,-1.7602,-1.7599,-1.7663,-1.7669,-1.7674,0,0,0,0,0,0,0,0,0,0,0,0,0,-1.7515,-1.7447,-1.7626,-1.7595,-1.7593,-1.7687,-1.7688,-1.7689,-1.761,-1.7605,-1.7601,-1.7597,-1.7662,-1.7668,-1.7675,-1.7803,0,0,-1.7695,-1.7698,0,0,0,0,0,0,0,0,-1.7511,-1.7522,-1.7599,-1.7597,-1.7595,-1.7636,-1.7647,-1.7728,-1.7611,-1.7603,-1.76,-1.7595,-1.7659,-1.7665,-1.7687,-1.7806,-1.7809,-1.7696,-1.77,-1.7703,-1.7704,0,0,0,0,0,0,0,-1.7506,-1.7519,-1.7651,-1.76,-1.7598,-1.7579,-1.7584,-1.7662,-1.7655,-1.7604,-1.7598,-1.7606,-1.7657,-1.768,-1.7688,-1.781,-1.7695,-1.7701,-1.7705,-1.7708,-1.8039,-1.8044,0,0,0,0,0,0,-1.7504,-1.7515,-1.7649,-1.7652,-1.7541,-1.7586,-1.7592,-1.7627,-1.7654,-1.7654,-1.761,-1.7602,-1.7671,-1.768,-1.769,-1.7843,-1.7702,-1.7709,-1.7713,-1.8034,-1.804,-1.8045,0,0,0,0,0,0,-1.7501,-1.7517,-1.7646,-1.7582,-1.7597,-1.7593,-1.7634,-1.7631,-1.7654,-1.7658,-1.7657,-1.7635,-1.7668,-1.768,-1.7776,-1.7844,-1.7712,-1.7718,-1.8029,-1.8036,-1.8043,-1.815,0,0,0,0,0,0,-1.7496,-1.7516,-1.7565,-1.7584,-1.7601,-1.7731,-1.7638,-1.7635,-1.7665,-1.7656,-1.7682,-1.7682,-1.7666,-1.7766,-1.7782,-1.7851,-1.7723,-1.8023,-1.8032,-1.804,-1.8141,-1.816,-1.8177,0,0,0,0,0,-1.7489,-1.7593,-1.7568,-1.7584,-1.7661,-1.7735,-1.7745,-1.7724,-1.7671,-1.772,-1.7723,-1.7681,-1.7833,-1.7777,-1.7794,-1.7866,-1.8018,-1.8029,-1.804,-1.8132,-1.8156,-1.8176,0,0,0,0,0,0,-1.7583,-1.7595,-1.7567,-1.7679,-1.7707,-1.7721,-1.7783,-1.7749,-1.7793,-1.7782,-1.7754,-1.7761,-1.7863,-1.7873,-1.781,-1.7992,-1.7917,-1.7932,-1.7982,-1.8004,-1.8022,-1.8019,-1.7729,0,0,0,0,0,-1.7616,-1.7675,-1.7682,-1.7781,-1.7796,-1.7787,-1.7819,-1.7799,-1.7827,-1.7839,-1.7848,-1.7877,-1.7931,-1.7968,-1.8018,-1.8141,-1.8146,-1.8199,-1.8217,-1.8232,-1.8246,-1.8312,-1.8336,-1.8081,-1.8081,-1.808,0,0,-1.7687,-1.77,-1.7739,-1.78,-1.7819,-1.7881,-1.7798,-1.7866,-1.7912,-1.7849,-1.794,-1.7948,-1.7979,-1.8089,-1.8137,-1.81,-1.8317,-1.8245,-1.8257,-1.8263,-1.8326,-1.835,-1.8371,-1.8088,-1.8087,-1.8086,0,0,-1.7846,-1.7862,-1.7946,-1.7967,-1.7996,-1.799,-1.801,-1.803,-1.8033,-1.8123,-1.8077,-1.8131,-1.8225,-1.8249,-1.8274,-1.8442,-1.8405,-1.8459,-1.8555,-1.862,-1.864,-1.8658,-1.872,-1.8742,-1.8472,-1.8473,-1.8473,0,-1.7931,-1.8021,-1.7994,-1.8067,-1.8095,-1.8039,-1.8125,-1.8147,-1.8192,-1.8213,-1.817,-1.8287,-1.8304,-1.8419,-1.846,-1.8481,-1.8504,-1.8457,-1.8639,-1.8657,-1.8673,-1.8731,-1.8755,-1.8479,-1.8478,-1.8478,-1.8477,0,-1.8124,-1.8187,-1.8252,-1.8296,-1.8332,-1.841,-1.8396,-1.8435,-1.8413,-1.8411,-1.8504,-1.8522,-1.8575,-1.86,-1.8579,-1.8713,-1.8689,-1.8643,-1.8568,-1.8704,-1.8759,-1.8781,-1.8488,-1.8486,-1.8484,-1.8483,0,0,-1.8346,-1.8373,-1.8398,-1.8417,-1.8445,-1.8495,-1.8571,-1.8622,-1.8657,-1.8689,-1.8753,-1.8834,-1.8791,-1.8819,-1.88,-1.8857,-1.8991,-1.8804,-1.8805,-1.884,-1.9141,-1.9177,-1.9203,-1.8966,-1.897,-1.8973,-1.9139,0,-1.8507,-1.8639,-1.8616,-1.8744,-1.8803,-1.8751,-1.8817,-1.8842,-1.8842,-1.8893,-1.8893,-1.8951,-1.889,-1.8907,-1.896,-1.8964,-1.9052,-1.8951,-1.9027,-1.903,-1.9023,-1.9231,-1.9269,-1.9425,-1.916,-1.9163,-1.9166,0,-1.8713,-1.8753,-1.8887,-1.8906,-1.8929,-1.899,-1.9035,-1.9083,-1.9111,-1.9107,-1.9138,-1.9108,-1.9185,-1.9107,-1.9213,-1.9145,-1.9174,-1.9181,-1.9186,-1.9194,-1.9108,-1.9247,-1.9473,-1.9498,-1.9199,-1.9196,-1.9194,0,-1.8864,-1.8951,-1.9042,-1.906,-1.9084,-1.9128,-1.914,-1.9162,-1.9195,-1.9234,-1.9255,-1.9303,-1.933,-1.9369,-1.9353,-1.9297,-1.9463,-1.9383,-1.9463,-1.9464,-1.9502,-1.95,-1.9739,-1.9518,-1.9517,-1.9517,-1.9517,0,-1.9047,-1.9132,-1.911,-1.9167,-1.926,-1.9233,-1.9326,-1.9332,-1.9353,-1.941,-1.9367,-1.9422,-1.9397,-1.945,-1.9438,-1.9529,-1.9541,-1.954,-1.9537,-1.9546,-1.9546,-1.9566,-1.9556,-1.9523,-1.9522,-1.9521,-1.952,0,-1.9233,-1.9221,-1.9318,-1.9332,-1.9338,-1.9406,-1.9418,-1.9472,-1.9468,-1.9541,-1.9556,-1.9551,-1.9611,-1.9599,-1.9665,-1.9657,-1.9772,-1.9753,-1.9763,-1.9759,-1.984,-1.9833,-2.0102,-2.0136,-1.9891,-1.9893,-1.9895,0,-1.9352,-1.9415,-1.9436,-1.9471,-1.9487,-1.9543,-1.9576,-1.9552,-1.9588,-1.9623,-1.9673,-1.9729,-1.9773,-1.9872,-1.9874,-1.9925,-1.9909,-1.9999,-1.9917,-1.9924,-1.9913,-1.991,-1.9917,-2.0017,-2.002,-2.0022,-2.0024,0,-1.9564,-1.9555,-1.9604,-1.965,-1.969,-1.9726,-1.9758,-1.9789,-1.9767,-1.981,-1.9871,-1.9905,-1.9972,-2.003,-2.0076,-2.0089,-2.0054,-2.0049,-2.0071,-2.0082,-2.0085,-2.0086,-1.981,-2.0044,-2.0042,-2.004,-2.0039,-2.0039,-1.9721,-1.9776,-1.9799,-1.9854,-1.9875,-1.9906,-1.9957,-1.9959,-2.0009,-2.0062,-2.0044,-2.0115,-2.014,-2.0199,-2.0218,-2.0272,-2.0239,-2.0269,-2.0277,-2.0286,-2.0297,-2.0075,-2.0281,-2.028,-2.0279,-2.0279,-2.0278,0,-1.9933,-1.9945,-1.9996,-2.0042,-2.0086,-2.0046,-2.0079,-2.0119,-2.0181,-2.0207,-2.0251,-2.0322,-2.0376,-2.0383,-2.0435,-2.0477,-2.0463,-2.0492,-2.049,-2.0494,-2.0323,-2.03,-2.0503,-2.0503,-2.0503,-2.0503,-2.0503,-2.0503,-2.0049,-2.0139,-2.0133,-2.0234,-2.0245,-2.0313,-2.0335,-2.0363,-2.0384,-2.0465,-2.051,-2.0513,-2.0532,-2.0585,-2.0634,-2.0634,-2.0656,-2.0692,-2.0687,-2.0528,-2.0506,-2.0484,-2.0463,-2.0697,-2.0697,-2.0853,-2.0855,-2.0856]},{"header":{"parameterUnit":"m.s-1","parameterCategory":1,"la1":30.2991,"la2":30.254,"lo1":-89.0895,"lo2":-89.0444,"dy":0.0017,"dx":0.0017,"nx":28,"ny":28,"refTime":"2024-10-11T03:00:00:Z","depth":0,"parameterNumber":3,"parameterNumberName":"V-component_of_WINDS"},"data":[0,0,0,0,0,0,0,0,0,0,0,0,0,0,0,0,0,0,0,0,0,0,0,0,0,0,0,0,0,0,0,0,0,0,0,0,0,0,0,0,0,0,0,0,0,0,0,0,0,0,0,0,0,0,0,0,0,0,-4.1255,-4.1256,0,-4.1305,-4.1305,-4.1306,-4.1234,-4.1231,-4.1229,-4.1227,-4.1273,-4.1277,-4.128,0,0,0,0,0,0,0,0,0,0,0,0,0,-4.1095,-4.1098,-4.1255,-4.1256,-4.1257,-4.1304,-4.1305,-4.1306,-4.1234,-4.1231,-4.1228,-4.1225,-4.1272,-4.1276,-4.128,0,0,0,0,0,0,0,0,0,0,0,0,0,-4.1156,-4.1099,-4.1255,-4.1227,-4.1225,-4.1304,-4.1305,-4.1306,-4.1235,-4.1231,-4.1228,-4.1224,-4.1271,-4.1276,-4.1281,-4.1389,0,0,-4.1297,-4.13,0,0,0,0,0,0,0,0,-4.1153,-4.1162,-4.123,-4.1229,-4.1227,-4.1259,-4.1266,-4.1334,-4.1236,-4.1231,-4.1227,-4.1222,-4.1271,-4.1276,-4.1294,-4.1392,-4.1394,-4.1298,-4.1301,-4.1303,-4.1305,0,0,0,0,0,0,0,-4.1149,-4.116,-4.1275,-4.1231,-4.1229,-4.121,-4.1215,-4.1278,-4.1272,-4.1231,-4.1226,-4.1233,-4.127,-4.1289,-4.1294,-4.1394,-4.1298,-4.1302,-4.1306,-4.1308,-4.1582,-4.1586,0,0,0,0,0,0,-4.1149,-4.1157,-4.1273,-4.1276,-4.118,-4.1216,-4.1221,-4.1253,-4.1271,-4.127,-4.1236,-4.123,-4.1281,-4.1288,-4.1296,-4.1423,-4.1303,-4.1308,-4.1312,-4.1578,-4.1583,-4.1587,0,0,0,0,0,0,-4.1145,-4.116,-4.1271,-4.1215,-4.1228,-4.1223,-4.1259,-4.1256,-4.1275,-4.1275,-4.1273,-4.1258,-4.1279,-4.1288,-4.1367,-4.1424,-4.1311,-4.1316,-4.1573,-4.158,-4.1585,-4.1679,0,0,0,0,0,0,-4.1141,-4.1159,-4.1201,-4.1217,-4.1231,-4.1343,-4.1262,-4.1259,-4.1285,-4.1276,-4.1294,-4.1293,-4.1276,-4.1359,-4.1372,-4.1429,-4.132,-4.1568,-4.1576,-4.1583,-4.1671,-4.1688,-4.1702,0,0,0,0,0,-4.1136,-4.1225,-4.1204,-4.1218,-4.1284,-4.1347,-4.1355,-4.1335,-4.129,-4.1331,-4.1331,-4.1293,-4.1415,-4.1368,-4.1382,-4.1441,-4.1564,-4.1574,-4.1583,-4.1664,-4.1685,-4.1702,0,0,0,0,0,0,-4.1216,-4.1227,-4.1203,-4.1301,-4.1323,-4.1334,-4.1386,-4.1357,-4.1392,-4.1383,-4.1355,-4.136,-4.1444,-4.145,-4.1397,-4.1546,-4.1482,-4.1495,-4.1539,-4.1559,-4.1574,-4.1571,-4.1324,0,0,0,0,0,-4.1245,-4.1296,-4.1302,-4.1388,-4.14,-4.1392,-4.1418,-4.1401,-4.1422,-4.1431,-4.1437,-4.1458,-4.1501,-4.153,-4.157,-4.1672,-4.1674,-4.1719,-4.1735,-4.1748,-4.1759,-4.1811,-4.1832,-4.1617,-4.1617,-4.1617,0,0,-4.1305,-4.1318,-4.1351,-4.1404,-4.1419,-4.1471,-4.14,-4.1458,-4.1496,-4.144,-4.1514,-4.1519,-4.1541,-4.1631,-4.1671,-4.1639,-4.1818,-4.1759,-4.177,-4.1773,-4.1823,-4.1843,-4.1861,-4.1624,-4.1622,-4.1621,0,0,-4.1442,-4.1457,-4.1529,-4.1547,-4.1571,-4.1565,-4.1582,-4.1598,-4.1599,-4.1674,-4.1632,-4.1676,-4.1751,-4.1768,-4.1787,-4.1929,-4.1895,-4.1943,-4.2024,-4.2076,-4.2093,-4.2108,-4.2158,-4.2176,-4.1954,-4.1954,-4.1954,0,-4.1513,-4.1592,-4.157,-4.1631,-4.1655,-4.1607,-4.1679,-4.1697,-4.1733,-4.1749,-4.1713,-4.1806,-4.1818,-4.1911,-4.1946,-4.1962,-4.198,-4.1941,-4.2093,-4.2107,-4.2121,-4.2168,-4.2187,-4.196,-4.1959,-4.1958,-4.1958,0,-4.1678,-4.1733,-4.1788,-4.1825,-4.1855,-4.1922,-4.1908,-4.1941,-4.1921,-4.1918,-4.1994,-4.2006,-4.2047,-4.2067,-4.2048,-4.2158,-4.2137,-4.2097,-4.2032,-4.2147,-4.2191,-4.2209,-4.1968,-4.1966,-4.1964,-4.1963,0,0,-4.1867,-4.1891,-4.1912,-4.1927,-4.1951,-4.1992,-4.2055,-4.2097,-4.2125,-4.2151,-4.2202,-4.2267,-4.223,-4.2251,-4.2233,-4.2279,-4.239,-4.2233,-4.2233,-4.2262,-4.251,-4.254,-4.2561,-4.2367,-4.2371,-4.2374,-4.2508,0,-4.2002,-4.2114,-4.2096,-4.2203,-4.2252,-4.2207,-4.2262,-4.2282,-4.2281,-4.2321,-4.2318,-4.2365,-4.2313,-4.2325,-4.2369,-4.2368,-4.244,-4.2358,-4.2414,-4.2416,-4.241,-4.2585,-4.2616,-4.2743,-4.2525,-4.2528,-4.253,0,-4.2176,-4.221,-4.2323,-4.2337,-4.2357,-4.2408,-4.2443,-4.2483,-4.2504,-4.2499,-4.2523,-4.2496,-4.2557,-4.2492,-4.2575,-4.252,-4.2542,-4.2545,-4.2549,-4.2553,-4.248,-4.2593,-4.2783,-4.2802,-4.2557,-4.2555,-4.2553,0,-4.2302,-4.2375,-4.2452,-4.2467,-4.2486,-4.2522,-4.2532,-4.2549,-4.2574,-4.2605,-4.2621,-4.2659,-4.2679,-4.2707,-4.2691,-4.2645,-4.2777,-4.271,-4.2774,-4.2775,-4.2804,-4.2802,-4.2999,-4.2819,-4.2819,-4.2818,-4.2818,0,-4.2455,-4.2525,-4.2508,-4.2555,-4.2632,-4.261,-4.2686,-4.269,-4.2705,-4.2751,-4.2714,-4.2757,-4.2733,-4.2774,-4.2761,-4.2832,-4.2842,-4.2839,-4.2834,-4.2842,-4.2842,-4.2856,-4.2846,-4.2823,-4.2822,-4.2821,-4.282,0,-4.2608,-4.26,-4.268,-4.2692,-4.2697,-4.2753,-4.2763,-4.2806,-4.2801,-4.286,-4.2872,-4.2865,-4.2911,-4.2897,-4.2947,-4.2939,-4.3028,-4.3013,-4.3022,-4.3018,-4.3082,-4.3076,-4.3295,-4.3322,-4.3124,-4.3126,-4.3128,0,-4.2707,-4.276,-4.2778,-4.2807,-4.282,-4.2866,-4.2892,-4.2872,-4.29,-4.2927,-4.2967,-4.301,-4.3044,-4.312,-4.3118,-4.3156,-4.3141,-4.3215,-4.3146,-4.3152,-4.3141,-4.3138,-4.3143,-4.3228,-4.323,-4.3232,-4.3234,0,-4.2882,-4.2875,-4.2915,-4.2954,-4.2987,-4.3016,-4.3041,-4.3066,-4.3047,-4.3081,-4.3129,-4.3155,-4.3206,-4.3249,-4.3283,-4.3291,-4.3259,-4.3255,-4.3272,-4.328,-4.3283,-4.3282,-4.3059,-4.325,-4.3249,-4.3248,-4.3247,-4.3246,-4.301,-4.3055,-4.3075,-4.3121,-4.3138,-4.3162,-4.3204,-4.3205,-4.3244,-4.3285,-4.327,-4.3325,-4.3342,-4.3385,-4.3397,-4.3439,-4.341,-4.3434,-4.344,-4.3447,-4.3455,-4.3277,-4.3445,-4.3444,-4.3444,-4.3443,-4.3443,0,-4.3183,-4.3194,-4.3236,-4.3273,-4.3309,-4.3277,-4.3303,-4.3334,-4.3383,-4.3403,-4.3437,-4.3491,-4.3533,-4.3534,-4.3572,-4.3605,-4.3591,-4.3616,-4.3613,-4.3615,-4.3478,-4.346,-4.3626,-4.3626,-4.3626,-4.3626,-4.3626,-4.3626,-4.3278,-4.3352,-4.3347,-4.3429,-4.3438,-4.3492,-4.351,-4.3532,-4.3547,-4.361,-4.3645,-4.3646,-4.3658,-4.3696,-4.3732,-4.3732,-4.3747,-4.3777,-4.3771,-4.3643,-4.3625,-4.3607,-4.359,-4.3781,-4.3781,-4.3904,-4.3905,-4.3906]}]]